User: anonymous   Login
Location: Newark
(41.9364°N, 2.8061°E)
Time: 20:21:55
(UTC+00:00)
Language:

S-56A Canister/Altair - Orbit

View from above orbital plane
View from above orbital plane
View from above satellite
View from above satellite

Ground track
Ground track

The orbit data is extracted from the following two-line orbital elements,

1    82U 61004B   20058.84164395 -.00000012 +00000-0 +16006-4 0  9997
2    82 038.8623 247.9551 1175021 269.7291 076.9000 12.26061039794235
Epoch (UTC): 27 February 2020 20:11:58
Eccentricity: 0.1175021
inclination: 38.8623°
perigee height: 633 km
apogee height: 2500 km
right ascension of ascending node: 247.9551°
argument of perigee: 269.7291°
revolutions per day: 12.26061039
mean anomaly at epoch: 76.9000°
orbit number at epoch: 79423

The dashed part of the orbit path shows where the satellite is in the earth's shadow,  

DLR